DW1232 Weather Reports


Display with metric or nautical units.
time (UTC)temp
F
wind
direction
speed
MPH
gust
MPH
rain 1hr
in
rain 24hr
in
rain mn
in
humidity
%
barometer
mb
20190419021253 66 74 0.0 0.0 0.00 0.46 0.38 52 1017.5
20190419020258 67 74 0.0 0.0 0.00 0.46 0.38 49 1017.3
20190419015320 67 74 0.0 0.0 0.00 0.46 0.38 47 1017.1
20190419014340 68 74 0.0 0.0 0.00 0.46 0.38 46 1016.7
20190419013356 69 80 0.0 0.0 0.00 0.46 0.38 44 1016.5
20190419012325 69 121 0.0 0.0 0.00 0.46 0.38 44 1016.1
20190419011335 70 63 0.0 0.0 0.00 0.46 0.38 43 1015.8
20190419010357 71 71 0.0 0.0 0.00 0.46 0.38 41 1015.7
20190419005327 72 67 0.0 0.0 0.00 0.46 0.38 39 1015.4
20190419004304 73 40 0.0 4.0 0.00 0.46 0.38 38 1015.3
20190419003321 73 76 0.0 0.0 0.00 0.46 0.38 38 1015.0
20190419002249 74 125 0.0 2.0 0.00 0.46 0.38 37 1014.9
20190419001253 74 78 0.0 9.0 0.00 0.46 0.38 36 1014.8
20190419000259 75 82 0.0 0.0 0.00 0.46 0.38 38 1014.7
20190418235302 75 105 0.0 9.0 0.00 0.46 0.38 35 1014.5
20190418234306 75 86 0.0 9.0 0.00 0.46 0.38 38 1014.3
20190418233248 75 95 2.0 13.0 0.00 0.46 0.38 35 1014.2
20190418232241 76 0 2.0 13.0 0.00 0.46 0.38 35 1014.1
20190418231228 76 58 3.0 12.0 0.00 0.46 0.38 36 1014.1
20190418230226 76 77 3.0 11.0 0.00 0.46 0.38 36 1013.9
20190418225206 76 58 2.0 9.0 0.00 0.46 0.38 35 1013.8
20190418224218 76 121 2.0 12.0 0.00 0.46 0.38 37 1013.6
20190418223211 76 137 2.0 12.0 0.00 0.46 0.38 39 1013.5
20190418222214 76 125 2.0 13.0 0.00 0.46 0.38 37 1013.4
20190418221154 76 57 4.0 13.0 0.00 0.46 0.38 37 1013.3
20190418220210 77 129 3.0 11.0 0.00 0.46 0.38 37 1013.1
20190418215207 76 129 3.0 15.0 0.00 0.46 0.38 37 1013.0
20190418214148 77 82 3.0 15.0 0.00 0.46 0.38 38 1012.8
20190418213147 77 124 4.0 11.0 0.00 0.46 0.38 40 1012.6
20190418212147 76 0 3.0 14.0 0.00 0.46 0.38 41 1012.7
20190418211112 77 115 3.0 14.0 0.00 0.46 0.38 46 1012.5
20190418210040 76 82 3.0 16.0 0.00 0.46 0.38 49 1012.5
20190418205104 76 67 5.0 16.0 0.00 0.46 0.38 49 1012.5
20190418204118 76 71 3.0 15.0 0.00 0.46 0.38 51 1012.6
20190418203121 76 102 6.0 13.0 0.00 0.46 0.38 54 1012.4
20190418202123 75 73 7.0 15.0 0.00 0.46 0.38 55 1012.5
20190418201103 75 116 4.0 15.0 0.00 0.46 0.38 58 1012.7
20190418200128 75 126 3.0 12.0 0.00 0.46 0.38 59 1013.0
20190418195113 75 105 3.0 15.0 0.00 0.46 0.38 58 1012.9
20190418194114 75 65 5.0 15.0 0.00 0.46 0.38 57 1013.0
20190418193102 74 84 6.0 14.0 0.00 0.46 0.38 59 1013.0
20190418192120 74 126 3.0 14.0 0.00 0.46 0.38 61 1013.0
20190418191120 73 58 4.0 14.0 0.00 0.46 0.38 65 1012.8
20190418190115 73 50 2.0 12.0 0.00 0.46 0.38 63 1012.9
20190418185122 72 82 5.0 13.0 0.00 0.46 0.38 65 1012.9
20190418184114 72 60 6.0 14.0 0.00 0.46 0.38 65 1013.0
20190418183117 71 84 5.0 15.0 0.00 0.46 0.38 67 1012.9
20190418182103 71 185 5.0 16.0 0.00 0.46 0.38 65 1012.8
20190418181042 71 0 4.0 16.0 0.00 0.46 0.38 67 1012.7
20190418180043 70 88 5.0 17.0 0.00 0.46 0.38 69 1012.7
20190418175045 71 53 6.0 17.0 0.00 0.46 0.38 66 1012.7
20190418174037 71 53 4.0 14.0 0.00 0.46 0.38 64 1012.4
20190418173003 72 65 4.0 15.0 0.00 0.46 0.38 64 1012.4
20190418172014 71 59 5.0 15.0 0.00 0.46 0.38 65 1012.1
20190418164116 71 21 0.0 8.0 0.00 0.46 0.38 66 1011.4
20190418163114 70 135 0.0 0.0 0.00 0.46 0.38 68 1011.4
20190418162055 69 24 0.0 0.0 0.00 0.46 0.38 70 1011.3
20190418161057 69 82 0.0 0.0 0.00 0.46 0.38 72 1011.2
20190418160056 68 80 0.0 5.0 0.00 0.46 0.38 74 1011.2
20190418155104 67 50 0.0 6.0 0.00 0.46 0.38 77 1011.3
20190418154035 66 336 0.0 0.0 0.00 0.46 0.38 83 1011.0
20190418153049 65 342 0.0 6.0 0.00 0.46 0.38 86 1011.0
20190418152112 63 34 0.0 2.0 0.00 0.46 0.38 91 1010.6
20190418151101 63 0 0.0 0.0 0.00 0.46 0.38 94 1010.6
20190418150032 61 339 0.0 0.0 0.00 0.46 0.38 95 1010.6
20190418145055 61 327 0.0 0.0 0.00 0.46 0.38 96 1010.8
20190418144100 60 336 0.0 0.0 0.00 0.46 0.38 96 1010.6
20190418143100 60 333 2.0 5.0 0.00 0.46 0.38 96 1010.7
20190418142118 60 321 0.0 4.0 0.00 0.46 0.38 96 1010.7
20190418141121 59 331 0.0 0.0 0.00 0.46 0.38 96 1010.5
20190418140121 59 332 0.0 0.0 0.00 0.46 0.38 96 1010.7
20190418135142 59 348 0.0 0.0 0.00 0.46 0.38 96 1010.6
20190418134202 59 321 0.0 0.0 0.00 0.46 0.38 96 1010.5
20190418133134 59 46 0.0 0.0 0.00 0.46 0.38 96 1010.4
20190418132110 59 99 0.0 0.0 0.00 0.46 0.38 96 1010.2
20190418131125 58 99 0.0 0.0 0.00 0.46 0.38 95 1010.2
20190418130140 59 0 0.0 0.0 0.00 0.46 0.38 96 1010.1
20190418125202 58 340 0.0 0.0 0.00 0.45 0.38 96 1010.0
20190418124224 57 341 0.0 0.0 0.00 0.45 0.38 95 1009.9
20190418123241 57 341 0.0 0.0 0.00 0.45 0.38 95 1009.7
20190418122234 57 341 0.0 0.0 0.00 0.45 0.38 95 1009.4
20190418121226 57 341 0.0 0.0 0.00 0.45 0.38 95 1009.1
20190418120235 57 302 0.0 0.0 0.00 0.45 0.38 95 1008.9
20190418115230 57 246 0.0 0.0 0.00 0.45 0.38 95 1008.7
20190418114202 57 217 0.0 0.0 0.00 0.45 0.38 95 1008.9
20190418113213 58 217 0.0 0.0 0.00 0.45 0.38 95 1008.7
20190418112145 58 217 0.0 0.0 0.00 0.45 0.38 95 1008.6
20190418111204 58 217 0.0 0.0 0.00 0.45 0.38 95 1008.9
20190418110215 58 217 0.0 0.0 0.00 0.45 0.38 95 1008.8
20190418105240 58 217 0.0 0.0 0.00 0.45 0.38 95 1008.8
20190418104207 58 217 0.0 0.0 0.00 0.45 0.38 95 1008.9
20190418103137 58 217 0.0 0.0 0.00 0.45 0.38 95 1009.0
20190418102151 58 217 0.0 0.0 0.00 0.45 0.38 95 1008.9
20190418100133 58 216 0.0 0.0 0.00 0.45 0.38 94 1008.0
20190418095152 58 216 0.0 0.0 0.00 0.45 0.38 94 1007.6
20190418094135 58 216 0.0 0.0 0.00 0.45 0.38 94 1008.3
20190418093118 58 186 0.0 0.0 0.00 0.45 0.38 94 1008.2
20190418092117 58 186 0.0 0.0 0.00 0.45 0.38 94 1007.2
20190418091108 58 187 0.0 0.0 0.00 0.45 0.38 94 1006.7
20190418090115 58 130 0.0 0.0 0.00 0.45 0.38 94 1006.2
20190418085055 58 130 0.0 0.0 0.00 0.43 0.37 94 1006.4
20190418084025 58 91 0.0 0.0 0.00 0.43 0.37 94 1006.4
20190418082958 58 91 0.0 0.0 0.00 0.43 0.37 93 1007.0
20190418082020 58 90 0.0 0.0 0.00 0.43 0.37 93 1007.9
20190418081013 58 91 0.0 0.0 0.00 0.43 0.36 93 1007.6
20190418080026 58 86 0.0 4.0 0.00 0.43 0.36 93 1005.9
20190418075011 58 121 0.0 0.0 0.00 0.43 0.36 93 1006.7
20190418074011 58 128 0.0 0.0 0.00 0.43 0.36 93 1006.8
20190418073002 59 141 0.0 0.0 0.00 0.43 0.36 93 1007.1
20190418071946 59 68 0.0 0.0 0.00 0.42 0.35 93 1007.5
20190418070949 59 92 0.0 0.0 0.00 0.42 0.35 93 1008.4
20190418065922 59 96 0.0 0.0 0.00 0.42 0.35 93 1008.1
20190418064901 59 84 0.0 0.0 0.00 0.42 0.35 93 1008.2
20190418063923 59 142 0.0 0.0 0.00 0.40 0.34 93 1009.1
20190418062858 59 138 2.0 0.0 0.05 0.40 0.34 93 1007.0
20190418061830 60 140 2.0 10.0 0.16 0.40 0.34 93 1006.7
20190418060841 60 107 3.0 20.0 0.15 0.39 0.32 92 1009.5
20190418055808 61 15 8.0 20.0 0.98 0.33 0.27 92 1010.5
20190418054801 61 0 5.0 16.0 0.28 0.16 0.10 92 1010.9
20190418053754 61 155 5.0 13.0 0.18 0.13 0.06 91 1006.6
20190418052752 62 84 4.0 11.0 0.38 0.10 0.03 90 1007.4
20190418051753 63 89 4.0 14.0 0.00 0.06 0.00 88 1009.0
20190418050808 65 76 5.0 15.0 0.00 0.06 0.00 86 1008.5
20190418045803 71 73 0.0 15.0 0.00 0.06 0.06 91 1008.2
20190418044729 73 216 0.0 0.0 0.06 0.06 0.06 93 1007.6
20190418043702 73 217 0.0 0.0 0.00 0.03 0.03 92 1007.8
20190418042637 73 217 0.0 0.0 0.04 0.02 0.02 92 1007.5
20190418041701 74 217 0.0 0.0 0.06 0.02 0.02 91 1007.7
20190418040711 74 217 0.0 0.0 0.00 0.01 0.01 91 1007.5
20190418035708 74 216 0.0 0.0 0.00 0.00 0.00 90 1006.8
20190418034640 74 192 0.0 0.0 0.00 0.00 0.00 90 1006.7
20190418033615 74 277 0.0 0.0 0.00 0.00 0.00 90 1006.4
20190418032626 74 174 0.0 0.0 0.00 0.00 0.00 89 1005.8
20190418031606 74 257 0.0 0.0 0.00 0.00 0.00 89 1005.5
20190418030540 74 0 0.0 0.0 0.00 0.00 0.00 89 1005.3
20190418025518 74 182 0.0 0.0 0.00 0.00 0.00 88 1004.8
20190418024513 74 219 0.0 0.0 0.00 0.00 0.00 88 1004.8
20190418023531 75 211 0.0 10.0 0.00 0.00 0.00 87 1004.7
20190418022539 75 240 0.0 0.0 0.00 0.00 0.00 87 1004.6